FW4110 Weather Reports


time (UTC)temp
C
wind
direction
speed
KPH
gust
KPH
rain 1hr
cm
rain 24hr
cm
rain mn
cm
humidity
%
barometer
mb
20260831103033 22 192 4.8 8.0 0.00 0.00 0.00 82 1017.9
20260831101530 21 161 4.8 8.0 0.00 0.00 0.00 83 1017.9
20260831100041 22 152 3.2 8.0 0.00 0.00 0.00 83 1017.9
20260831094534 21 163 0.0 3.2 0.00 0.00 0.00 84 1017.9
20260831093042 21 156 0.0 3.2 0.00 0.00 0.00 86 1017.9
20260831091524 20 165 0.0 0.0 0.00 0.00 0.00 87 1017.8
20260831090020 21 165 0.0 0.0 0.00 0.00 0.00 87 1017.7
20260831084513 21 165 0.0 0.0 0.00 0.00 0.00 85 1017.6
20260831083011 22 165 0.0 3.2 0.00 0.00 0.00 83 1017.5
20260831081510 22 160 0.0 4.8 0.00 0.00 0.00 84 1017.3
20260831080005 22 163 0.0 1.6 0.00 0.00 0.00 85 1017.2
20260831074503 22 166 0.0 1.6 0.00 0.00 0.00 84 1017.3
20260831073057 23 166 0.0 3.2 0.00 0.00 0.00 82 1017.4
20260831071554 23 141 3.2 6.4 0.00 0.00 0.00 81 1017.5
20260831070049 23 162 3.2 8.0 0.00 0.00 0.00 80 1017.5
20260831064545 24 162 1.6 6.4 0.00 0.00 0.00 79 1017.6
20260831063042 24 164 3.2 11.3 0.00 0.00 0.00 78 1017.7
20260831061542 24 154 4.8 9.7 0.00 0.00 0.00 78 1017.8
20260831060038 24 153 0.0 4.8 0.00 0.00 0.00 78 1017.8
20260831054533 24 139 1.6 4.8 0.00 0.00 0.00 78 1017.7
20260831053034 25 168 4.8 9.7 0.00 0.00 0.00 77 1017.8
20260831051532 25 160 4.8 9.7 0.00 0.00 0.00 76 1017.6
20260831050024 25 157 1.6 4.8 0.00 0.00 0.00 77 1017.6
20260831044532 25 174 3.2 9.7 0.00 0.00 0.00 77 1017.5
20260831043021 25 160 0.0 4.8 0.00 0.00 0.00 77 1017.3
20260831041527 25 159 1.6 6.4 0.00 0.00 0.00 77 1017.4
20260831040020 26 145 3.2 9.7 0.00 0.00 0.00 77 1017.3
20260831034512 26 154 6.4 11.3 0.00 0.00 0.00 77 1017.2
20260831033018 26 171 6.4 12.9 0.00 0.00 0.00 78 1017.3
20260831031508 26 188 4.8 11.3 0.00 0.00 0.00 78 1017.2
20260831030006 26 156 1.6 8.0 0.00 0.00 0.00 78 1017.2
20260831024503 27 200 1.6 8.0 0.00 0.00 0.00 77 1017.3
20260831023006 27 187 3.2 9.7 0.00 0.00 0.00 77 1017.1
20260831021502 27 144 3.2 8.0 0.00 0.00 0.00 77 1017.1
20260831020100 27 166 3.2 8.0 0.00 0.00 0.00 76 1017.0
20260831014558 28 173 3.2 11.3 0.00 0.00 0.00 75 1017.0
20260831013056 28 178 1.6 12.9 0.00 0.00 0.00 74 1016.8
20260831011557 28 145 3.2 8.0 0.00 0.00 0.00 73 1016.6
20260831004549 29 169 3.2 6.4 0.00 0.00 0.00 72 1016.4
20260831003045 30 190 0.0 4.8 0.00 0.00 0.00 71 1016.4
20260831001544 30 186 1.6 8.0 0.00 0.00 0.00 71 1016.5
20260831000043 31 178 3.2 6.4 0.00 0.00 0.00 70 1016.4
20260830234539 31 263 4.8 11.3 0.00 0.00 0.00 69 1016.5
20260830233040 32 176 4.8 16.1 0.00 0.00 0.00 68 1016.7
20260830231535 33 162 3.2 11.3 0.00 0.00 0.00 65 1016.7
20260830230033 33 185 4.8 12.9 0.00 0.00 0.00 64 1016.6
20260830224530 33 262 6.4 14.5 0.00 0.00 0.00 63 1016.5
20260830223033 34 204 1.6 12.9 0.00 0.00 0.00 61 1016.5
20260830221626 35 199 3.2 12.9 0.00 0.00 0.00 61 1016.5
20260830220024 35 163 1.6 6.4 0.00 0.00 0.00 61 1016.4
20260830214522 35 160 4.8 11.3 0.00 0.00 0.00 60 1016.4
20260830213016 35 261 3.2 9.7 0.00 0.00 0.00 60 1016.5
20260830211513 35 225 1.6 9.7 0.00 0.00 0.00 59 1016.6
20260830210010 35 177 4.8 12.9 0.00 0.00 0.00 59 1016.7
20260830204504 35 145 3.2 16.1 0.00 0.00 0.00 58 1016.8
20260830203100 35 214 3.2 14.5 0.00 0.00 0.00 59 1016.9
20260830201603 35 234 1.6 14.5 0.00 0.00 0.00 58 1017.0
20260830200052 35 267 1.6 11.3 0.00 0.00 0.00 59 1017.3
20260830194548 35 179 6.4 12.9 0.00 0.00 0.00 58 1017.5
20260830193045 34 149 0.0 9.7 0.00 0.00 0.00 59 1017.6
20260830191542 34 196 1.6 12.9 0.00 0.00 0.00 59 1017.8
20260830190038 34 276 1.6 14.5 0.00 0.00 0.00 60 1017.9
20260830184539 33 184 3.2 11.3 0.00 0.00 0.00 59 1018.0
20260830183031 33 159 8.0 14.5 0.00 0.00 0.00 61 1017.9
20260830181526 33 88 3.2 16.1 0.00 0.00 0.00 59 1018.1
20260830180021 33 294 4.8 19.3 0.00 0.00 0.00 61 1018.3
20260830174519 32 178 6.4 12.9 0.00 0.00 0.00 62 1018.5
20260830173014 33 268 0.0 6.4 0.00 0.00 0.00 61 1018.9
20260830171509 32 317 3.2 14.5 0.00 0.00 0.00 63 1018.8
20260830170007 32 243 4.8 14.5 0.00 0.00 0.00 62 1019.0
20260830164503 31 270 4.8 12.9 0.00 0.00 0.00 62 1019.2
20260830163103 31 270 6.4 16.1 0.00 0.00 0.00 63 1019.1
20260830161618 31 189 3.2 11.3 0.00 0.00 0.00 64 1019.2
20260830160054 30 280 3.2 16.1 0.00 0.00 0.00 68 1019.2
20260830154548 30 246 3.2 14.5 0.00 0.00 0.00 67 1019.2
20260830153044 29 259 4.8 17.7 0.00 0.00 0.00 69 1019.0
20260830151540 28 182 3.2 9.7 0.00 0.00 0.00 71 1018.9
20260830150105 28 187 6.4 12.9 0.00 0.00 0.00 70 1018.9
20260830144533 27 273 4.8 17.7 0.00 0.00 0.00 72 1019.0
20260830143026 27 125 0.0 9.7 0.00 0.00 0.00 74 1018.9
20260830141521 26 261 1.6 9.7 0.00 0.00 0.00 75 1019.0
20260830140016 26 277 3.2 9.7 0.00 0.00 0.00 76 1019.0
20260830134521 25 185 3.2 6.4 0.00 0.00 0.00 76 1019.0
20260830133007 24 171 3.2 8.0 0.00 0.00 0.00 77 1019.1
20260830131601 23 150 0.0 0.0 0.00 0.00 0.00 78 1019.2
20260830130108 22 149 0.0 0.0 0.00 0.00 0.00 79 1019.3
20260830124553 21 182 0.0 0.0 0.00 0.00 0.00 80 1019.4
20260830123050 19 179 0.0 0.0 0.00 0.00 0.00 85 1019.4
20260830121552 19 156 0.0 3.2 0.00 0.00 0.00 84 1019.4
20260830120041 -17 0.0 0.0 0.00 0.00 0.00 1019.3
20260830114540 -17 0.0 0.0 0.00 0.00 0.00 1019.1
20260830113031 -17 0.0 0.0 0.00 0.00 0.00 1019.4
20260830111526 -17 0.0 0.0 0.00 0.00 0.00 1019.0
20260830110026 -17 0.0 0.0 0.00 0.00 0.00 1018.8
20260830104516 -17 0.0 0.0 0.00 0.00 0.00 1019.0